This is the latest recevied weather packets stored in our database for station/object G4KVI. If no packets are shown the sender has not sent any weather packets the latest 1 day(s).
| Time | Temp. | Humidity | Pressure | Rain* | Wind** | Luminosity | Snow |
|---|---|---|---|---|---|---|---|
| 1778100004 | 8.33° C | 68% | 1016.3 hPa | 0 mm | - | 0 W/m² | - |
| 1778099704 | 8.33° C | 68% | 1016.5 hPa | 0 mm | - | 0 W/m² | - |
| 1778099404 | 8.89° C | 66% | 1016.4 hPa | 0 mm | - | 0 W/m² | - |
| 1778099104 | 9.44° C | 65% | 1016.4 hPa | 0 mm | - | 0 W/m² | - |
| 1778098804 | 9.44° C | 64% | 1016.4 hPa | 0 mm | - | 0 W/m² | - |
| 1778098504 | 10° C | 61% | 1016.3 hPa | 0 mm | - | 0 W/m² | - |
| 1778098204 | 10.56° C | 59% | 1016.2 hPa | 0 mm | - | 0 W/m² | - |
| 1778097904 | 11.11° C | 57% | 1016.1 hPa | 0 mm | - | 0 W/m² | - |
| 1778097304 | 11.67° C | 53% | 1016.1 hPa | 0 mm | - | 0 W/m² | - |
| 1778097004 | 11.67° C | 52% | 1016 hPa | 0 mm | - | 1 W/m² | - |
| 1778096704 | 11.67° C | 51% | 1015.8 hPa | 0 mm | - | 2 W/m² | - |
| 1778096104 | 12.22° C | 50% | 1015.8 hPa | 0 mm | - | 5 W/m² | - |
| 1778095804 | 12.22° C | 50% | 1015.7 hPa | 0 mm | - | 7 W/m² | - |
| 1778095204 | 12.22° C | 49% | 1015.9 hPa | 0 mm | - | 11 W/m² | - |
| 1778094904 | 12.22° C | 49% | 1015.7 hPa | 0 mm | - | 13 W/m² | - |
| 1778094304 | 12.78° C | 49% | 1015.9 hPa | 0 mm | - | 17 W/m² | - |
| 1778093704 | 12.78° C | 48% | 1015.9 hPa | 0 mm | - | 26 W/m² | - |
| 1778093404 | 12.78° C | 48% | 1015.7 hPa | 0 mm | - | 24 W/m² | - |
| 1778092504 | 13.33° C | 48% | 1015.7 hPa | 0 mm | - | 34 W/m² | - |
| 1778091304 | 13.33° C | 46% | 1015.7 hPa | 0 mm | - | 56 W/m² | - |
| 1778091004 | 13.33° C | 46% | 1015.5 hPa | 0 mm | - | 56 W/m² | - |
| 1778090404 | 13.33° C | 46% | 1015.5 hPa | 0 mm | - | 52 W/m² | - |
| 1778089804 | 13.33° C | 46% | 1015.5 hPa | 0 mm | - | 47 W/m² | - |
| 1778089504 | 13.33° C | 46% | 1015.4 hPa | 0 mm | - | 57 W/m² | - |
| 1778089204 | 13.33° C | 45% | 1015.4 hPa | 0 mm | - | 61 W/m² | - |
* Rain latest hour (hover to see other rain measurements)
** Current wind speed in m/s (hover to see current wind gust speed)